Location: T�bingen+AIT
(48.5342°N, 9.0700°E)
Time: 15:08:00
(UTC+01:00)

Cosmos 2292 Rocket - Pass Details

Date: 14 September 2017
Orbit: 382 x 1466 km, 83.0° (Epoch: 18 November)

Event Time Altitude Azimuth Distance (km) Brightness Sun altitude
Rises 20:18:07 0° 179° (S) 2,890 6.8 -7.3°
Reaches altitude 10° 20:20:35 10° 175° (S) 1,835 5.8 -7.7°
Maximum altitude 20:24:24 58° 96° (E) 558 3.0 -8.3°
Drops below altitude 10° 20:27:33 10° 17° (NNE) 1,513 5.6 -8.8°
Sets 20:29:26 0° 13° (NNE) 2,325 6.6 -9.1°
